sat.trackr.live / text

‹ back to catalog

STARLINK-5143

NORAD 54089 · 2022-136AQ

PAYLOAD ACTIVE UNKNOWN

§ Identity

Operator
Country
US
Launch date
2022-10-20
Launch site
AFETR
Launch vehicle
Mass (kg)
RCS (m²)

Purposes: comms

External: N2YO · Heavens-Above · Gunter

§ Orbital elements

Epoch: 2026-05-24T23:35:49.278336Z

Period
95.44 min
Inclination
53.2137°
Eccentricity
0.0001265
Mean motion
15.08840658 rev/d
Perigee alt
538.9 km
Apogee alt
540.6 km
Semi-major
6,917.9 km
B*
7.4422e-5
RAAN
351.4983°
Arg perigee
87.0115°
Mean anomaly
273.1022°
Rev number
19,850

§ Raw data

STARLINK-51431 54089U 22136AQ  26144.98320924  .00000897  00000+0  74422-4 0  99902 54089  53.2137 351.4983 0001265  87.0115 273.1022 15.08840658198503

JSON: /api/v1/satellites/54089 · /tle

For live sub-satellite position, see the globe view (requires WebGL).

§ Visibility from observer

Set your observer location to see the next 7 days of passes ≥ 10°. The values pass through the URL so the page stays shareable.

No JS? Fill the form by hand. The geolocation button needs JavaScript.